Hourly Data Report for September 26, 2017

All times are specified in Local Standard Time (LST). Add 1 hour to adjust for Daylight Saving Time where and when it is observed.

QIKIQTARJUAQ A
NUNAVUT

67°32'48.000" N
64°01'54.000" W
5.50 m
2400577
YVM

Download Data

Hourly Data (September 2017)
Hourly Data Report for September 26, 2017
Temp Definition
°C
Dew Point Temp Definition
°C
Rel Hum Definition
%
Wind Dir Definition
10's deg

Wind Spd Definition
km/h
Visibility Definition
km
Stn Press Definition
kPa
Hmdx Definition


Wind Chill Definition


Weather Definition


TIME
00:00 Legend Double Dagger -2.1 -5.4 78 18 13 16.1 100.97   -7 LegendNANA
01:00 Legend Double Dagger -1.7 -6.8 68 20 15 16.1 100.95   -7 LegendNANA
02:00 Legend Double Dagger -0.6 -5.8 68 31 15 16.1 100.95   -5 LegendNANA
03:00 Legend Double Dagger -0.2 -5.7 67 33 18 16.1 100.97   -5 LegendNANA
04:00 Legend Double Dagger -0.5 -5.0 72 32 18 16.1 100.98   -6 LegendNANA
05:00 Legend Double Dagger -0.3 -4.0 76 32 26 16.1 100.96   -6 LegendNANA
06:00 Legend Double Dagger -0.1 -4.4 73 33 21 16.1 100.97   -6 LegendNANA
07:00 Legend Double Dagger -0.5 -3.6 80 32 21 12.9 100.95   -6 Snow
08:00 Legend Double Dagger -0.6 -2.6 86 32 21 8.1 100.94   -6 Snow
09:00 Legend Double Dagger -0.2 -3.4 79 32 18 16.1 100.94   -5 LegendNANA
10:00 Legend Double Dagger 0.3 -3.5 76 33 32 16.1 100.93     LegendNANA
11:00 Legend Double Dagger 0.2 -2.8 80 33 26 16.1 100.93     LegendNANA
12:00 Legend Double Dagger 0.1 -2.5 83 33 26 16.1 100.95     LegendNANA
13:00 Legend Double Dagger 0.3 -2.8 80 33 28 16.1 100.94     LegendNANA
14:00 Legend Double Dagger 0.2 -2.3 83 34 24 16.1 100.93     LegendNANA
15:00 Legend Double Dagger 0.2 -2.3 84 34 21 16.1 100.97     LegendNANA
16:00 Legend Double Dagger 0.3 -2.0 85 35 35 16.1 100.98     Rain
17:00 Legend Double Dagger 0.3 -2.2 83 32 26 16.1 100.98     LegendNANA
18:00 Legend Double Dagger 0.4 -2.8 79 35 18 16.1 100.99     LegendNANA
19:00 Legend Double Dagger 0.4 -2.5 81 33 15 16.1 100.99     LegendNANA
20:00 Legend Double Dagger 0.3 -2.4 82 33 21 16.1 100.96     LegendNANA
21:00 Legend Double Dagger 0.4 -2.3 82 34 22 16.1 100.95     LegendNANA
22:00 Legend Double Dagger 0.4 -2.8 79 34 24 16.1 100.95     LegendNANA
23:00 Legend Double Dagger 0.4 -2.8 79 35 18 16.1 100.99     LegendNANA

Notes on Data Quality.

Legend

  • E = Estimated
  • M = Missing
  • NA = Not Available
  • ‡ = Partner data that is not subject to review by the National Climate Archives
Date modified: